Regional Weather Roundup
Issued by NWS

Home | Current Version | Previous Version | Text Only | Print | Product List | Glossary On
Versions: 1 2 3 4 5 6 7 8 9 10 11 12 13 14 15 16 17 18 19 20 21 22 23 24 25 26 27 28 29 30 31 32 33 34 35 36 37 38 39 40 41 42 43 44 45 46 47 48
000
ASUS43 KMPX 131810
RWRMN
WEATHER ROUNDUP FOR MINNESOTA
NATIONAL WEATHER SERVICE TWIN CITIES/CHANHASSEN MN
100 PM CDT THU AUG 13 2020


NOTE: "FAIR" INDICATES FEW OR NO CLOUDS BELOW 12,000 FEET WITH NO
SIGNIFICANT WEATHER AND/OR OBSTRUCTIONS TO VISIBILITY. N/A MEANS
CURRENT SKY AND/OR WEATHER CONDITIONS ARE NOT AVAILABLE.

MNZ060>063-068>070-131900-
   Twin Cities Metro

CITY           SKY/WX    TMP DP  RH WIND       PRES   REMARKS
TWIN CITIES    PTSUNNY   84  72  67 S14G22    29.99F
6HR MIN TEMP:  69; 6HR MAX TEMP:  84;

ST PAUL        PTSUNNY   85  74  69 SE14      29.99F HX  92
CRYSTAL        PTSUNNY   83  71  67 S14       29.98F
BLAINE         PTSUNNY   84  72  65 S14       29.99F
LAKEVILLE      MOSUNNY   86  66  51 S9G16     30.00F
EDEN PRAIRIE   MOSUNNY   83  73  72 S10       29.98F
6HR MIN TEMP:  70; 6HR MAX TEMP:  83;

SOUTH ST PAUL  SUNNY     84  72  66 S7        29.99F HX  90
LAKE ELMO      PTSUNNY   82  73  74 S12       30.02S
$$
MNZ001>005-007-008-013>017-022>024-027-028-131900-
   Northwest Minnesota

CITY           SKY/WX    TMP DP  RH WIND       PRES   REMARKS
BEMIDJI        CLOUDY    71  67  85 SE18      29.91S
HALLOCK        CLOUDY    73  70  88 CALM      29.84R
ROSEAU         MOSUNNY   77 N/A N/A SE18G25   29.84F
WARROAD        PTSUNNY   73  70  88 SE15G23   29.87F
THIEF RVR FALL CLOUDY    78  69  73 SE14      29.84R
CROOKSTON      SUNNY     79  72  78 S17       29.80F
FOSSTON        SUNNY     73  66  78 SE15G23   29.85R
DETROIT LAKES    N/A     81  72  74 SE20      29.86S
MOORHEAD       SUNNY     88  68  51 S22       29.81R HX  91
PARK RAPIDS    CLOUDY    74  68  81 SE16G25   29.91F
MAHNOMEN       FAIR      77  70  78 SE17G25   29.84S
$$
MNZ006-009>011-018-025>026-131900-
   North Central Minnesota

CITY           SKY/WX    TMP DP  RH WIND       PRES   REMARKS
BAUDETTE       CLOUDY    73  65  75 SE18G31   29.91F
FLAG ISLAND      N/A     73  64  73 SE9       29.86F
INTL FALLS     CLOUDY    74  64  71 SE17G26   29.96F
6HR MIN TEMP:  58; 6HR MAX TEMP:  75;

WASKISH        CLOUDY    73  66  78 SE10G23   29.90F
BIG FORK       CLOUDY    70  63  78 SE9       30.03S
LONGVILLE      CLOUDY    72  66  83 SE13G18   29.95F
GRAND RAPIDS   CLOUDY    69  66  90 SE10G17   30.00F
CRANE LAKE     CLOUDY    73  64  73 SE5       30.04S
ORR            CLOUDY    72  63  73 SE8       29.99F
COOK           CLOUDY    70  63  78 SE7       30.03F
WALKER         CLOUDY    70  67  90 S14G20    29.93S
$$
MNZ012-019>021-037-131900-
   Northeast Minnesota

CITY           SKY/WX    TMP DP  RH WIND       PRES   REMARKS
DULUTH         CLOUDY    69  62  78 E10       30.05F
6HR MIN TEMP:  63; 6HR MAX TEMP:  69; 6HR PCP:  0.03;

ELY            LGT RAIN  73  61  64 SE12      30.06S
HIBBING        CLOUDY    68  63  84 SE14      30.02F
EVELETH        CLOUDY    68  65  89 SE6       30.05F
DULUTH HARBOR  CLOUDY    66  63  88 NE14      30.04F
TWO HARBORS    CLOUDY    70  55  60 E6        30.06F
SILVER BAY       N/A     70  59  68 E8        30.07F
GRAND MARAIS     N/A     62  54  74 NE8       30.10S
G MARAIS ARPRT MOSUNNY   72  52  49 SE8       30.14R
$$
MNZ029>031-032-039>041-046>048-054>057-064-131900-
   West Central Minnesota

CITY           SKY/WX    TMP DP  RH WIND       PRES   REMARKS
FERGUS FALLS   SUNNY     82  73  74 S23       29.84S
WHEATON        SUNNY     84  72  65 SE18G26   29.84F
MORRIS         SUNNY     84  73  70 S21       29.89F HX  91
ALEXANDRIA     MOSUNNY   84  74  71 S20G29    29.93F HX  91
ELBOW LAKE     FAIR      83  75  78 S23G29    29.87F HX  90
WADENA         MOSUNNY   81  72  74 SE16G25   29.90F
GLENWOOD       SUNNY     84  73  70 S18       29.93F HX  91
APPLETON       MOSUNNY   86  73  66 S14G21    29.88F HX  93
ORTONVILLE     SUNNY     88  73  62 S14G23    29.86F HX  96
MADISON        SUNNY     88  75  66 S13G23    29.89F HX  97
WILLMAR        FAIR      84  73  70 S9G16     29.97S HX  91
$$
MNZ033>034-036-042>043-049>051-058-059-131900-
   Central Minnesota

CITY           SKY/WX    TMP DP  RH WIND       PRES   REMARKS
ST CLOUD       CLOUDY    77  72  84 SE15      29.97F
6HR MIN TEMP:  64; 6HR MAX TEMP:  77;

SAUK CENTRE    MOCLDY    82  74  79 SE16      29.94F
PAYNESVILLE    PTSUNNY   82  76  80 SE12G18   29.96S HX  90
AITKIN         CLOUDY    72  66  83 SE10      29.97F
PINE RIVER     CLOUDY    72  68  88 SE12      29.97F
BRAINERD       CLOUDY    77  69  76 SE10G20   29.96F
STAPLES        CLOUDY    75  70  83 SE12G17   29.94S
LONG PRAIRIE   CLOUDY    81  72  74 S14G21    29.94F
LITTLE FALLS   CLOUDY    77  72  83 SE9G17    29.96F
CAMP RIPLEY    MOCLDY    78  73  83 SE16      29.96F
LITCHFIELD     PTSUNNY   82  75  78 SE6       29.97F
BUFFALO        PTSUNNY   80  70  72 MISG      30.00F
MAPLE LAKE       N/A     79  74  83 SE5       29.99F
HUTCHINSON     PTSUNNY   82  76  80 SE9G20    29.99S HX  90
$$
MNZ037-044-045-052-053-131900-
   East Central Minnesota

CITY           SKY/WX    TMP DP  RH WIND       PRES   REMARKS
PRINCETON      PTSUNNY   79  72  78 SE12      29.99F
MORA           PTSUNNY   73  68  83 SE7       30.02S
CAMBRIDGE      SUNNY     82  68  61 S10       30.00S
RUSH CITY      CLOUDY    77  69  77 SE7       30.01F
MOOSE LAKE     CLOUDY    73  66  78 SE5       30.01S
HINCKLEY       CLOUDY    75  70  83 SE5       30.01F
CLOQUET        CLOUDY    68  63  83 E10       30.03F
MCGREGOR       CLOUDY    73  68  83 S10G18    30.01F
$$
MNZ071>073-080-081-089-090-097-098-131900-
   Southwest Minnesota

CITY           SKY/WX    TMP DP  RH WIND       PRES   REMARKS
MONTEVIDEO     MOSUNNY   84  72  65 SW15G22   29.92S
GRANITE FALLS  PTSUNNY   85  76  74 SE9       29.94F HX  95
CANBY          MOSUNNY   85  72  64 S9G21     29.91F HX  91
MARSHALL       CLOUDY    85  74  69 S17G23    29.93F HX  92
REDWOOD FALLS  MOSUNNY   84  73  69 S17       29.94F HX  90
OLIVIA         PTSUNNY   84  72  65 S13G18    29.95S
PIPESTONE        N/A     82  73  74 SW15G23   29.97F
WINDOM         SUNNY     84  72  65 S12G20    29.98S
WORTHINGTON    PTSUNNY   82  73  74 S17G25    29.99S
JACKSON        MOSUNNY   82  72  69 S14G20    30.01S
TRACY          MOSUNNY   85  71  62 S14G24    29.96R HX  90
SLAYTON        MOSUNNY   82  67  60 S16       29.99S
$$
MNZ065>067-074>077-082>085-091>093-131900-
   South Central Minnesota

CITY           SKY/WX    TMP DP  RH WIND       PRES   REMARKS
MANKATO        PTSUNNY   82  76  81 S10       30.00F
NEW ULM        MOSUNNY   82  73  74 S12       29.98S
ST JAMES         N/A     84  73  70 S15       29.98S HX  91
FAIRMONT       SUNNY     85  73  67 S16       30.00S HX  91
GLENCOE        PTSUNNY   80  73  77 S8        29.98F
FARIBAULT      MOSUNNY   84  73  70 S12       30.01F HX  91
OWATONNA       MOSUNNY   84  73  70 SE10      30.02F HX  91
ALBERT LEA     MOSUNNY   82  73  74 S15       30.02F
$$
MNZ078>079-086>088-094>096-131900-
   Southeast Minnesota

CITY           SKY/WX    TMP DP  RH WIND       PRES   REMARKS
ROCHESTER      MOSUNNY   84  71  65 S15       30.06S
6HR MIN TEMP:  66; 6HR MAX TEMP:  85;

RED WING       MOSUNNY   84  72  65 SE9       30.01S
STANTON        PTSUNNY   85  73  67 S12       30.00F HX  91
DODGE CENTER   MOSUNNY   81  70  69 S8G17     30.05F
WINONA         PTSUNNY   82  72  69 SW6       30.05S
AUSTIN         MOSUNNY   82  73  74 S13       30.05F
PRESTON        PTSUNNY   81  70  68 SE10      30.07F
$$
ABBREVIATIONS USED IN REMARKS
   TC - TEMPERATURES IN CELSIUS
  WCI - WIND CHILL INDEX
   HX - HEAT INDEX
  VSB - VISIBILITY
$$




USA.gov is the U.S. government's official web portal to all federal, state and local government web resources and services.